This is the latest recevied weather packets stored in our database for station/object HEBOWX. If no packets are shown the sender has not sent any weather packets the latest 10 day(s).
| Time | Temp. | Humidity | Pressure | Rain* | Wind** | Luminosity | Snow |
|---|---|---|---|---|---|---|---|
| 1777754722 | 13.33° C | 53% | 1011.3 hPa | 0 mm | - | - | - |
| 1777754421 | 13.33° C | 54% | 1011.4 hPa | 0 mm | - | - | - |
| 1777754121 | 13.33° C | 55% | 1011.3 hPa | 0 mm | - | - | - |
| 1777753821 | 13.33° C | 55% | 1011.5 hPa | 0 mm | - | - | - |
| 1777753521 | 13.33° C | 55% | 1011.5 hPa | 0 mm | - | - | - |
| 1777753221 | 13.33° C | 54% | 1011.5 hPa | 0 mm | - | - | - |
| 1777752921 | 13.33° C | 55% | 1011.6 hPa | 0 mm | - | - | - |
| 1777752622 | 13.33° C | 55% | 1011.6 hPa | 0 mm | - | - | - |
| 1777752321 | 12.78° C | 55% | 1011.5 hPa | 0 mm | - | - | - |
| 1777752021 | 13.33° C | 55% | 1011.6 hPa | 0 mm | - | - | - |
| 1777751721 | 13.33° C | 54% | 1011.6 hPa | 0 mm | - | - | - |
| 1777751421 | 13.33° C | 53% | 1011.8 hPa | 0 mm | - | - | - |
| 1777751121 | 13.89° C | 54% | 1011.6 hPa | 0 mm | - | - | - |
| 1777750821 | 13.89° C | 54% | 1011.6 hPa | 0 mm | - | - | - |
| 1777750521 | 13.89° C | 53% | 1011.8 hPa | 0 mm | - | - | - |
| 1777750221 | 13.89° C | 53% | 1011.8 hPa | 0 mm | - | - | - |
| 1777749921 | 13.89° C | 54% | 1011.9 hPa | 0 mm | - | - | - |
| 1777749622 | 13.89° C | 53% | 1011.9 hPa | 0 mm | - | - | - |
| 1777749322 | 13.33° C | 55% | 1012.1 hPa | 0 mm | - | - | - |
| 1777749021 | 13.33° C | 54% | 1012.1 hPa | 0 mm | - | - | - |
| 1777748721 | 13.33° C | 55% | 1011.8 hPa | 0 mm | - | - | - |
| 1777748421 | 12.78° C | 55% | 1011.8 hPa | 0 mm | - | - | - |
| 1777748121 | 12.22° C | 56% | 1011.6 hPa | 0 mm | - | - | - |
| 1777747821 | 12.22° C | 57% | 1011.9 hPa | 0 mm | - | - | - |
| 1777747521 | 11.67° C | 59% | 1011.7 hPa | 0 mm | - | - | - |
* Rain latest hour (hover to see other rain measurements)
** Current wind speed in m/s (hover to see current wind gust speed)